This demonstration page uses our WeatherBlox Daily Observations layout. Learn more.

Hourly Observations for April 18, 2016

Temp ( °F °C ) Dew Point ( °F °C ) Humidity (%) Winds ( mph kmh ) Pressure ( in mb ) Visibility ( mi km ) Precip ( " mm )
12:15 am 00:15 Cloudy with Light Rain 42 5.5 40 4.7 95 95 NNW 14 22 30.27 1025 7 11.26538 0.03 0.762
12:35 am 00:35 Cloudy with Light Rain 42 5.3 40 4.5 95 95 N 13 20 30.27 1025 10 16.0934 0.05 1.27
12:55 am 00:55 Cloudy with Rain 41 5.2 40 4.4 95 95 N 21 33 30.24 1024 7 11.26538 0.07 1.778
1:15 am 01:15 Cloudy with Light Rain 41 5.1 40 4.2 94 94 NNE 17 28 30.27 1025 10 16.0934 0.03 0.762
1:35 am 01:35 Cloudy with Light Rain 41 5.1 40 4.2 94 94 N 12 19 30.27 1025 10 16.0934 0.04 1.016
1:55 am 01:55 Cloudy with Light Rain 41 5 39 4 93 93 NNE 20 31 30.24 1024 4 6.43736 0.07 1.778
2:15 am 02:15 Cloudy with Light Rain 41 5 39 4.1 94 94 NNE 16 26 30.24 1024 10 16.0934 0.02 0.508
2:35 am 02:35 Cloudy with Light Rain 41 5 39 4.1 94 94 NNW 15 24 30.21 1023 10 16.0934 0.03 0.762
2:55 am 02:55 Cloudy with Light Drizzle 41 5 39 4 93 93 NW 10 17 30.24 1024 10 16.0934 0.03 0.762
3:15 am 03:15 Cloudy 40 4.7 39 3.8 94 94 NNW 13 20 30.21 1023 10 16.0934 0 0
3:35 am 03:35 Cloudy 40 4.6 39 3.7 94 94 NW 13 20 30.21 1023 10 16.0934 0 0
3:55 am 03:55 Cloudy 40 4.6 39 3.7 94 94 NW 12 19 30.24 1024 10 16.0934 0 0
4:15 am 04:15 Cloudy 40 4.5 38 3.5 93 93 NW 13 20 30.24 1024 10 16.0934 0 0
4:35 am 04:35 Cloudy 40 4.5 38 3.3 92 92 NNW 14 22 30.24 1024 10 16.0934 0 0
4:55 am 04:55 Cloudy 40 4.5 38 3.3 92 92 NNW 16 26 30.21 1023 10 16.0934 0 0
5:15 am 05:15 Cloudy 40 4.5 38 3.2 91 91 NNW 16 26 30.24 1024 10 16.0934 0 0
5:35 am 05:35 Cloudy 40 4.5 38 3.2 91 91 NNW 14 22 30.24 1024 10 16.0934 0 0
5:55 am 05:55 Cloudy 40 4.5 38 3.2 91 91 NNW 10 17 30.24 1024 10 16.0934 0 0
6:15 am 06:15 Cloudy with Light Drizzle 40 4.5 38 3.1 91 91 NNW 14 22 30.24 1024 10 16.0934 0 0
6:35 am 06:35 Cloudy with Light Drizzle 40 4.5 38 3.1 91 91 NW 13 20 30.24 1024 10 16.0934 0 0
6:55 am 06:55 Cloudy 40 4.5 38 3.1 91 91 NNW 14 22 30.24 1024 10 16.0934 0 0
7:15 am 07:15 Cloudy 40 4.5 38 3.1 91 91 NNW 9 15 30.24 1024 10 16.0934 0 0
7:35 am 07:35 Cloudy 40 4.4 37 3 91 91 NNW 15 24 30.27 1025 10 16.0934 0 0
7:55 am 07:55 Cloudy with Light Rain 40 4.5 37 3 90 90 NNW 12 19 30.24 1024 10 16.0934 0 0
8:15 am 08:15 Cloudy with Light Drizzle 40 4.5 37 2.8 89 89 NNW 14 22 30.3 1026 10 16.0934 0 0
8:35 am 08:35 Cloudy 40 4.5 37 2.8 89 89 NNW 10 17 30.3 1026 10 16.0934 0 0
8:55 am 08:55 Cloudy 40 4.5 37 2.9 89 89 NNW 10 17 30.3 1026 10 16.0934 0 0
9:15 am 09:15 Cloudy 40 4.6 37 3 89 89 NNW 12 19 30.3 1026 10 16.0934 0 0
9:35 am 09:35 Cloudy 40 4.5 38 3.3 92 92 NNW 13 20 30.3 1026 7 11.26538 0 0
9:55 am 09:55 Cloudy 41 4.8 39 3.8 93 93 NNW 15 24 30.24 1024 7 11.26538 0 0
10:15 am 10:15 Cloudy 41 5 39 4 93 93 NNW 13 20 30.24 1024 10 16.0934 0 0
10:35 am 10:35 Cloudy 41 5.1 39 3.8 91 91 N 14 22 30.27 1025 10 16.0934 0 0
10:55 am 10:55 Cloudy 41 5.2 39 3.7 90 90 NNW 14 22 30.27 1025 10 16.0934 0 0
11:15 am 11:15 Cloudy 42 5.5 39 4 90 90 NNW 14 22 30.27 1025 10 16.0934 0 0
11:35 am 11:35 Cloudy 42 5.8 39 4 88 88 N 15 24 30.24 1024 10 16.0934 0 0
11:55 am 11:55 Cloudy 43 6 39 4.1 88 88 N 12 19 30.24 1024 10 16.0934 0 0
12:15 pm 12:15 Cloudy 43 6 40 4.3 89 89 NNW 10 17 30.27 1025 10 16.0934 0 0
12:35 pm 12:35 Cloudy 43 6.1 40 4.6 90 90 NNW 8 13 30.27 1025 10 16.0934 0 0
12:55 pm 12:55 Cloudy with Mist and Fog 43 6.1 41 4.8 91 91 NNW 9 15 30.27 1025 4 6.43736 0 0
1:15 pm 13:15 Cloudy with Light Drizzle 44 6.5 41 5.2 92 92 NNW 9 15 30.27 1025 3 4.82802 0 0
1:35 pm 13:35 Cloudy 45 7.2 43 6 92 92 NW 10 17 30.27 1025 7 11.26538 0 0
1:55 pm 13:55 Cloudy 47 8.3 44 6.5 89 89 NW 9 15 30.21 1023 10 16.0934 0 0
2:15 pm 14:15 Cloudy 47 8.6 44 6.5 87 87 NW 10 17 30.21 1023 10 16.0934 0 0
2:35 pm 14:35 Cloudy 48 9 44 6.7 86 86 NNW 8 13 30.21 1023 10 16.0934 0 0
2:55 pm 14:55 Cloudy 49 9.2 44 6.7 85 85 NW 8 13 30.21 1023 10 16.0934 0 0
3:15 pm 15:15 Cloudy 49 9.2 44 6.6 84 84 NW 8 13 30.21 1023 10 16.0934 0 0
3:35 pm 15:35 Cloudy 49 9.4 44 6.9 85 85 NNW 7 11 30.21 1023 10 16.0934 0 0
3:55 pm 15:55 Cloudy 50 10 45 7.2 83 83 NNW 5 7 30.21 1023 10 16.0934 0 0
4:15 pm 16:15 Cloudy 50 10 44 6.8 81 81 NNW 7 11 30.21 1023 10 16.0934 0 0
4:35 pm 16:35 Cloudy 50 10 44 6.9 81 81 NW 7 11 30.21 1023 10 16.0934 0 0
4:55 pm 16:55 Cloudy 50 10.1 45 7.1 82 82 NNW 5 7 30.21 1023 10 16.0934 0 0
5:15 pm 17:15 Cloudy 50 10.2 44 6.8 80 80 NW 6 9 30.21 1023 10 16.0934 0 0
5:35 pm 17:35 Cloudy 51 10.3 44 6.8 79 79 WNW 3 6 30.21 1023 10 16.0934 0 0
5:55 pm 17:55 Cloudy 51 10.5 44 6.8 78 78 WNW 7 11 30.21 1023 10 16.0934 0 0
6:15 pm 18:15 Cloudy 50 10.2 44 6.5 78 78 NW 7 11 30.21 1023 10 16.0934 0 0
6:35 pm 18:35 Cloudy 50 10.2 44 6.7 79 79 WNW 6 9 30.21 1023 10 16.0934 0 0
6:55 pm 18:55 Cloudy 50 10.1 44 6.6 79 79 W 5 7 30.21 1023 10 16.0934 0 0
7:15 pm 19:15 Cloudy 50 10.1 44 6.4 78 78 WNW 5 7 30.21 1023 10 16.0934 0 0
7:35 pm 19:35 Cloudy 50 9.9 44 6.4 79 79 W 5 7 30.21 1023 10 16.0934 0 0
7:55 pm 19:55 Cloudy 49 9.7 43 6.3 80 80 Calm 30.21 1023 10 16.0934 0 0
8:15 pm 20:15 Cloudy 49 9.5 44 6.4 81 81 W 5 7 30.21 1023 10 16.0934 0 0
8:35 pm 20:35 Cloudy 49 9.5 43 6.1 80 80 NW 6 9 30.21 1023 10 16.0934 0 0
8:55 pm 20:55 Cloudy 49 9.5 43 6.1 80 80 WNW 3 6 30.21 1023 10 16.0934 0 0
9:15 pm 21:15 Cloudy 49 9.5 43 6 79 79 Calm 30.21 1023 10 16.0934 0 0
9:35 pm 21:35 Cloudy 49 9.3 44 6.6 83 83 Calm 30.24 1024 10 16.0934 0 0
9:55 pm 21:55 Cloudy 49 9.2 44 6.6 84 84 Calm 30.24 1024 10 16.0934 0 0
10:15 pm 22:15 Cloudy 49 9.2 44 6.5 83 83 Calm 30.24 1024 10 16.0934 0 0
10:35 pm 22:35 Cloudy 48 8.8 44 6.6 86 86 Calm 30.24 1024 10 16.0934 0 0
10:55 pm 22:55 Mostly Cloudy 47 8.2 44 6.4 89 89 Calm 30.24 1024 10 16.0934 0 0
11:15 pm 23:15 Partly Cloudy 46 8 44 6.5 90 90 Calm 30.24 1024 10 16.0934 0 0
11:35 pm 23:35 Mostly Cloudy 46 7.6 43 6.2 91 91 Calm 30.27 1025 10 16.0934 0 0
11:55 pm 23:55 Partly Cloudy 46 7.6 43 5.9 89 89 Calm 30.27 1025 10 16.0934 0 0

Powered by AerisWeather